• In Latvia
  • List of Countries
  • For 7 days
  • Water Temperature
  • Satellite Maps
  • Weather Map
  • Weather Widgets
  • user-avatar
    Login

    Hourly Weather Aizkraukle

    Today, 21 October, Saturday

    Time Temperature Precipitation Wind Pressure Humidity
    00:00 +4°C° 0 mm 2 mps 763 mmHg 90%
    01:00 +3°C° 0 mm 2 mps 763 mmHg 90%
    02:00 +3°C° 0 mm 2 mps 763 mmHg 90%
    03:00 +3°C° 0 mm 2 mps 762 mmHg 90%
    04:00 +2°C° 0 mm 3 mps 762 mmHg 90%
    05:00 +2°C° 0 mm 3 mps 762 mmHg 90%
    06:00 +2°C° 0 mm 3 mps 762 mmHg 89%
    07:00 +1°C° 0 mm 3 mps 762 mmHg 89%
    08:00 +1°C° 0 mm 3 mps 762 mmHg 89%
    09:00 +3°C° 0 mm 3 mps 762 mmHg 83%
    10:00 +4°C° 0 mm 3 mps 762 mmHg 77%
    11:00 +5°C° 0 mm 3 mps 762 mmHg 71%
    12:00 +5°C° 0 mm 3 mps 762 mmHg 67%
    13:00 +7°C° 0 mm 3 mps 762 mmHg 64%
    14:00 +7°C° 0 mm 3 mps 762 mmHg 61%
    15:00 +5°C° 0 mm 3 mps 762 mmHg 65%
    16:00 +5°C° 0 mm 2 mps 762 mmHg 70%
    17:00 +4°C° 0 mm 2 mps 762 mmHg 75%
    18:00 +3°C° 0 mm 2 mps 762 mmHg 78%
    19:00 +2°C° 0 mm 2 mps 762 mmHg 81%
    20:00 +2°C° 0 mm 2 mps 762 mmHg 83%
    21:00 +1°C° 0 mm 2 mps 762 mmHg 85%
    22:00 +1°C° 0 mm 2 mps 763 mmHg 87%
    23:00 -1°C° 0 mm 2 mps 763 mmHg 88%

    Tomorrow, 22 October, Sunday

    Time Temperature Precipitation Wind Pressure Humidity
    00:00 +1°C° 0 mm 1 mps 763 mmHg 89%
    01:00 +1°C° 0 mm 1 mps 763 mmHg 90%
    02:00 +1°C° 0 mm 1 mps 763 mmHg 91%
    03:00 +1°C° 0 mm 1 mps 763 mmHg 91%
    04:00 +1°C° 0 mm 1 mps 763 mmHg 91%
    05:00 +1°C° 0 mm 1 mps 763 mmHg 91%
    06:00 +1°C° 0 mm 1 mps 763 mmHg 89%
    07:00 +1°C° 0 mm 1 mps 763 mmHg 88%
    08:00 +1°C° 0 mm 1 mps 763 mmHg 86%
    09:00 +3°C° 0 mm 1 mps 762 mmHg 78%
    10:00 +4°C° 0 mm 1 mps 762 mmHg 69%
    11:00 +6°C° 0 mm 1 mps 762 mmHg 61%
    12:00 +7°C° 0 mm 1 mps 762 mmHg 58%
    13:00 +7°C° 0 mm 1 mps 762 mmHg 55%
    14:00 +8°C° 0 mm 1 mps 761 mmHg 52%
    15:00 +6°C° 0 mm 1 mps 761 mmHg 58%
    16:00 +5°C° 0 mm 1 mps 761 mmHg 64%
    17:00 +2°C° 0 mm 0 mps 761 mmHg 70%
    18:00 +3°C° 0 mm 1 mps 761 mmHg 72%
    19:00 +2°C° 0 mm 1 mps 761 mmHg 74%
    20:00 +2°C° 0 mm 1 mps 761 mmHg 76%
    21:00 +1°C° 0 mm 1 mps 761 mmHg 77%
    22:00 +1°C° 0 mm 1 mps 761 mmHg 78%
    23:00 +1°C° 0 mm 1 mps 761 mmHg 79%

    Day after tomorrow, 23 October, Monday

    Time Temperature Precipitation Wind Pressure Humidity
    00:00 +1°C° 0 mm 1 mps 761 mmHg 79%
    01:00 +1°C° 0 mm 1 mps 761 mmHg 79%
    02:00 +1°C° 0 mm 1 mps 761 mmHg 80%
    03:00 +1°C° 0 mm 1 mps 761 mmHg 80%
    04:00 +1°C° 0 mm 1 mps 761 mmHg 81%
    05:00 +1°C° 0 mm 1 mps 761 mmHg 81%
    06:00 +1°C° 0 mm 1 mps 762 mmHg 81%
    07:00 +1°C° 0 mm 1 mps 762 mmHg 81%
    08:00 -1°C° 0 mm 2 mps 762 mmHg 80%
    09:00 +1°C° 0 mm 2 mps 762 mmHg 74%
    10:00 +3°C° 0 mm 2 mps 762 mmHg 68%
    11:00 +3°C° 0 mm 3 mps 763 mmHg 62%
    12:00 +3°C° 0 mm 3 mps 763 mmHg 60%
    13:00 +4°C° 0 mm 3 mps 763 mmHg 59%
    14:00 +4°C° 0 mm 3 mps 763 mmHg 57%
    15:00 +3°C° 0 mm 3 mps 764 mmHg 63%
    16:00 +3°C° 0 mm 2 mps 764 mmHg 69%
    17:00 +2°C° 0 mm 2 mps 764 mmHg 75%
    18:00 +2°C° 0 mm 2 mps 765 mmHg 78%
    19:00 0°C° 0 mm 3 mps 765 mmHg 80%
    20:00 0°C° 0 mm 3 mps 766 mmHg 83%
    21:00 0°C° 0 mm 3 mps 766 mmHg 83%
    22:00 -1°C° 0 mm 3 mps 767 mmHg 83%
    23:00 -1°C° 0 mm 3 mps 768 mmHg 84%

    24 October, Tuesday

    Time Temperature Precipitation Wind Pressure Humidity
    00:00 -1°C° 0 mm 3 mps 768 mmHg 83%
    01:00 -2°C° 0 mm 2 mps 768 mmHg 83%
    02:00 -2°C° 0 mm 2 mps 768 mmHg 82%
    03:00 -2°C° 0 mm 2 mps 769 mmHg 82%
    04:00 -2°C° 0 mm 2 mps 769 mmHg 82%
    05:00 -3°C° 0 mm 2 mps 770 mmHg 82%
    06:00 -2°C° 0 mm 2 mps 770 mmHg 81%
    07:00 -2°C° 0 mm 2 mps 770 mmHg 81%
    08:00 -2°C° 0 mm 2 mps 771 mmHg 80%
    09:00 -1°C° 0 mm 2 mps 771 mmHg 72%
    10:00 0°C° 0 mm 3 mps 771 mmHg 65%
    11:00 +2°C° 0 mm 3 mps 771 mmHg 58%
    12:00 +2°C° 0 mm 3 mps 772 mmHg 56%
    13:00 +4°C° 0 mm 2 mps 772 mmHg 53%
    14:00 +4°C° 0 mm 2 mps 772 mmHg 51%
    15:00 +3°C° 0 mm 2 mps 772 mmHg 57%
    16:00 +2°C° 0 mm 2 mps 772 mmHg 63%
    17:00 +1°C° 0 mm 2 mps 772 mmHg 68%
    18:00 -1°C° 0 mm 2 mps 772 mmHg 71%
    19:00 -1°C° 0 mm 2 mps 773 mmHg 74%
    20:00 -2°C° 0 mm 2 mps 773 mmHg 76%
    21:00 -2°C° 0 mm 2 mps 773 mmHg 77%
    22:00 -2°C° 0 mm 2 mps 773 mmHg 78%
    23:00 -2°C° 0 mm 2 mps 773 mmHg 79%

    25 October, Wednesday

    Time Temperature Precipitation Wind Pressure Humidity
    00:00 0°C° 0 mm 1 mps 774 mmHg 79%
    01:00 -1°C° 0 mm 1 mps 774 mmHg 79%
    02:00 -1°C° 0 mm 1 mps 774 mmHg 79%
    03:00 -1°C° 0 mm 1 mps 774 mmHg 79%
    04:00 -1°C° 0 mm 1 mps 774 mmHg 78%
    05:00 -1°C° 0 mm 1 mps 774 mmHg 78%
    06:00 -3°C° 0 mm 2 mps 774 mmHg 77%
    07:00 -3°C° 0 mm 2 mps 774 mmHg 76%
    08:00 -3°C° 0 mm 2 mps 774 mmHg 75%
    09:00 -1°C° 0 mm 2 mps 774 mmHg 68%
    10:00 +1°C° 0 mm 2 mps 774 mmHg 61%
    11:00 +2°C° 0 mm 3 mps 774 mmHg 54%
    12:00 +2°C° 0 mm 3 mps 773 mmHg 52%
    13:00 +3°C° 0 mm 3 mps 773 mmHg 49%
    14:00 +3°C° 0 mm 3 mps 772 mmHg 47%
    15:00 +2°C° 0 mm 3 mps 772 mmHg 53%
    16:00 +2°C° 0 mm 2 mps 772 mmHg 59%
    17:00 -1°C° 0 mm 2 mps 772 mmHg 64%
    18:00 -1°C° 0 mm 2 mps 772 mmHg 64%
    19:00 -1°C° 0 mm 3 mps 772 mmHg 65%
    20:00 -1°C° 0 mm 3 mps 771 mmHg 65%
    21:00 -2°C° 0 mm 4 mps 771 mmHg 64%
    22:00 -1°C° 0 mm 4 mps 771 mmHg 62%
    23:00 -1°C° 0 mm 4 mps 770 mmHg 61%

    26 October, Thursday

    Time Temperature Precipitation Wind Pressure Humidity
    00:00 -1°C° 0 mm 4 mps 770 mmHg 61%
    01:00 -1°C° 0 mm 4 mps 769 mmHg 61%
    02:00 -1°C° 0 mm 5 mps 769 mmHg 61%
    03:00 -1°C° 0 mm 5 mps 768 mmHg 61%
    04:00 -1°C° 0 mm 5 mps 767 mmHg 61%
    05:00 -1°C° 0 mm 5 mps 766 mmHg 61%
    06:00 -1°C° 0.3 mm 5 mps 765 mmHg 65%
    07:00 -1°C° 0.3 mm 5 mps 765 mmHg 68%
    08:00 -2°C° 0.3 mm 6 mps 764 mmHg 72%
    09:00 -2°C° 0.6 mm 6 mps 763 mmHg 75%
    10:00 -2°C° 0.6 mm 6 mps 763 mmHg 77%
    11:00 -1°C° 0.6 mm 6 mps 762 mmHg 80%
    12:00 -1°C° 0.5 mm 6 mps 762 mmHg 82%
    13:00 0°C° 0.5 mm 5 mps 761 mmHg 84%
    14:00 0°C° 0.5 mm 5 mps 760 mmHg 87%
    15:00 +1°C° 0.1 mm 4 mps 760 mmHg 89%
    16:00 +1°C° 0.1 mm 4 mps 759 mmHg 92%
    17:00 +2°C° 0.1 mm 3 mps 759 mmHg 94%
    18:00 +2°C° 0 mm 3 mps 759 mmHg 95%
    19:00 +3°C° 0 mm 3 mps 758 mmHg 96%
    20:00 +3°C° 0 mm 3 mps 758 mmHg 97%
    21:00 +3°C° 0 mm 3 mps 757 mmHg 97%
    22:00 +3°C° 0 mm 3 mps 757 mmHg 97%
    23:00 +5°C° 0 mm 2 mps 757 mmHg 97%
    Show more